Retour au catalogue

DMSP 5D-2 F13 DEB

ActifSSO
NORAD 42286·DEBRIS·🇺🇸 United States

Lancé Mar 24, 1995 depuis Vandenberg Space Force Base

Loading…

Prochains Passages (prochaines 24 heures)

TLE

VieillissantSource: Space-Track

Époque: Sep 10, 2026, 04:28 UTC

1 42286U 95015HC  26253.18624121  .00002502  00000-0  10588-2 0  9998
2 42286  98.9271 232.9300 0049511 186.8526 173.1981 14.25764709582892

Suivez DMSP 5D-2 F13 DEB en temps réel avec AllMySat

Download on the App Store